This is the latest recevied weather packets stored in our database for station/object KC0SIQ-13. If no packets are shown the sender has not sent any weather packets the latest 10 day(s).
| Time | Temp. | Humidity | Pressure | Rain* | Wind** | Luminosity | Snow |
|---|---|---|---|---|---|---|---|
| 1778134731 | 0° C | 93% | 1014.1 hPa | 0 mm | - | 0 W/m² | - |
| 1778134429 | 0° C | 92% | 1014 hPa | 0 mm | - | 0 W/m² | - |
| 1778134127 | 0° C | 92% | 1014.2 hPa | 0 mm | - | 0 W/m² | - |
| 1778133823 | 0° C | 91% | 1014.1 hPa | 0 mm | - | 0 W/m² | - |
| 1778133520 | 0° C | 91% | 1014.4 hPa | 0 mm | - | 0 W/m² | - |
| 1778133215 | 0° C | 91% | 1014.4 hPa | 0 mm | - | 0 W/m² | - |
| 1778132913 | 0° C | 90% | 1014.1 hPa | 0 mm | - | 0 W/m² | - |
| 1778132608 | 0.56° C | 89% | 1014.2 hPa | 0 mm | - | 0 W/m² | - |
| 1778132306 | 0.56° C | 89% | 1014.2 hPa | 0 mm | - | 0 W/m² | - |
| 1778132004 | 0.56° C | 88% | 1014.5 hPa | 0 mm | - | 0 W/m² | - |
| 1778131702 | 1.11° C | 87% | 1014.5 hPa | 0 mm | - | 0 W/m² | - |
| 1778131399 | 1.11° C | 86% | 1014.6 hPa | 0 mm | - | 0 W/m² | - |
| 1778131096 | 1.67° C | 85% | 1014.6 hPa | 0 mm | - | 0 W/m² | - |
| 1778130794 | 1.67° C | 85% | 1014.5 hPa | 0 mm | - | 0 W/m² | - |
| 1778130490 | 1.67° C | 84% | 1014.5 hPa | 0 mm | - | 0 W/m² | - |
| 1778130187 | 2.22° C | 84% | 1014.6 hPa | 0 mm | - | 0 W/m² | - |
| 1778129884 | 1.67° C | 84% | 1015 hPa | 0 mm | - | 0 W/m² | - |
| 1778129580 | 2.22° C | 84% | 1014.9 hPa | 0 mm | - | 0 W/m² | - |
| 1778129277 | 1.67° C | 87% | 1015.2 hPa | 0 mm | - | 0 W/m² | - |
| 1778128974 | 1.11° C | 87% | 1015 hPa | 0 mm | - | 0 W/m² | - |
| 1778128670 | 1.67° C | 86% | 1015.4 hPa | 0 mm | - | 0 W/m² | - |
| 1778128367 | 1.11° C | 86% | 1015.4 hPa | 0 mm | - | 0 W/m² | - |
| 1778128063 | 1.67° C | 85% | 1015.3 hPa | 0 mm | - | 0 W/m² | - |
| 1778127758 | 1.67° C | 85% | 1015.4 hPa | 0 mm | - | 0 W/m² | - |
| 1778127456 | 1.67° C | 84% | 1015.4 hPa | 0 mm | - | 0 W/m² | - |
* Rain latest hour (hover to see other rain measurements)
** Current wind speed in m/s (hover to see current wind gust speed)